Regional Weather Roundup
Issued by NWS

Home | Current Version | Previous Version | Graphics & Text | Print | Product List | Glossary On
Versions: 1 2 3 4 5 6 7 8 9 10 11 12 13 14 15 16 17 18 19 20 21 22 23 24 25 26 27 28 29 30 31 32 33 34 35 36 37 38 39 40 41 42 43 44 45 46 47 48 49 50
000
ASUS43 KDMX 181206
RWRIA

WEATHER ROUNDUP FOR IOWA
NATIONAL WEATHER SERVICE DES MOINES IA
600 AM CST SUN FEB 18 2018

NOTE: "FAIR" INDICATES FEW OR NO CLOUDS BELOW 12,000 FEET WITH NO
SIGNIFICANT WEATHER AND/OR OBSTRUCTIONS TO VISIBILITY.

* - THESE STATIONS ARE NOT NWS STATIONS...THUS NOT UNDER NWS
QUALITY CONTROL.  THEY ALSO DO NOT REPORT WEATHER SUCH
AS PRECIPITATION OR FOG.

IAZ001>003-012>014-020>022-031>034-043>046-181300-
   NORTHWEST IOWA

CITY           SKY/WX    TMP DP  RH WIND       PRES   REMARKS
CARROLL *      CLEAR     30  25  80 S15       29.93F WCI  19
CHEROKEE *     CLOUDY    28  23  84 S9        29.85F WCI  19
DENISON *      CLEAR     32  25  74 S25G32    29.90F WCI  19
LE MARS *      CLEAR     28  23  80 S15       29.79F WCI  17
ORANGE CITY *  CLEAR     28  27  93 S14G21    29.78F WCI  17
SHELDON *      CLOUDY    28  25  86 S26G32    29.77F WCI  13
SIOUX CITY     CLEAR     30  24  78 S23G30    29.82F WCI  17
6HR MIN TEMP:  19; 6HR MAX TEMP:  30;

SPENCER        CLOUDY    26  22  84 SE20      29.85F WCI  12
6HR MIN TEMP:  12; 6HR MAX TEMP:  27;

STORM LAKE *   CLOUDY    27  23  86 S25G32    29.86F WCI  11
$$

IAZ055>058-069>071-079>083-090>094-181300-
   SOUTHWEST IOWA

CITY           SKY/WX    TMP DP  RH WIND       PRES   REMARKS
ATLANTIC *     CLEAR     34  25  69 S12G22    29.96F WCI  25
AUDUBON *      CLEAR     30  27  86 S12G17    29.95F WCI  21
CLARINDA *     CLOUDY    32  25  74 S10G16    30.03F WCI  24
COUNCIL BLFS * CLOUDY    34  27  75 S17G24    29.91F WCI  23
CRESTON *      CLOUDY    32  23  69 S14G21    30.02F WCI  22
HARLAN  *      PTCLDY    32  27  80 S12G17    29.97F WCI  23
LAMONI         CLOUDY    29  20  69 SE9       30.05F WCI  20
6HR MIN TEMP:  27; 6HR MAX TEMP:  32;

RED OAK *      CLOUDY    34  25  69 S14       29.97F WCI  24
SHENANDOAH *   PTCLDY    34  25  69 S17G24    29.98F WCI  23
$$

IAZ047>049-059>061-072>074-084-181300-
   CENTRAL IOWA

CITY           SKY/WX    TMP DP  RH WIND       PRES   REMARKS
AMES           CLEAR     23  21  92 SE12      30.05F WCI  12
6HR MIN TEMP:  15; 6HR MAX TEMP:  23;

ANKENY *       CLEAR     27  25  93 S9        30.07F WCI  17
BOONE *        CLEAR     27  23  86 SE14      30.01F WCI  15
CHARITON *     CLOUDY    28  25  86 S13       30.08F WCI  18
DES MOINES     CLEAR     28  23  81 SE13      30.06F WCI  17
6HR MIN TEMP:  24; 6HR MAX TEMP:  29;

GRINNELL*      CLEAR     24  23  96 SE12G17   30.11F WCI  13
KNOXVILLE *    CLEAR     28  23  80 SE10      30.08F WCI  19
MARSHALLTOWN   CLEAR     20  19  96 SE12      30.07F WCI   8
6HR MIN TEMP:  15; 6HR MAX TEMP:  21;

NEWTON *       CLEAR     23  21  93 SE10      30.08F WCI  12
PELLA *        CLEAR     27  24  88 SE9       30.12F WCI  18
PERRY *        FAIR      28  25  91 SE14      30.01F WCI  16
$$

IAZ004>006-015-016-023>025-035-036-181300-
   NORTH CENTRAL IOWA

CITY           SKY/WX    TMP DP  RH WIND       PRES   REMARKS
ALGONA *       CLOUDY    23 N/A N/A SE20G26   29.92F WCI   8
CLARION *      CLOUDY    21  21 100 SE22      29.99F WCI   5
ESTHERVILLE    CLOUDY    21  19  92 SE24      29.87F WCI   4
6HR MIN TEMP:  12; 6HR MAX TEMP:  22;

FORT DODGE *   PTCLDY    25  23  92 SE12      29.97F WCI  14
MASON CITY     CLOUDY    20  18  92 SE12      30.03F WCI   8
6HR MIN TEMP:  12; 6HR MAX TEMP:  20;

FOREST CITY *  FAIR      23  23 100 SE9       29.98F WCI  13
WEBSTER CITY * CLOUDY    21  19  93 SE17      29.98F WCI   7
IOWA FALLS *   FAIR      21  20  94 SE8       30.05F WCI  12
$$

IAZ007>011-017>019-026>030-037>042-050>054-066-181300-
   NORTHEAST IOWA

CITY           SKY/WX    TMP DP  RH WIND       PRES   REMARKS
CEDAR RAPIDS   FOG       19  15  84 SE6       30.13S VSB 1/4 WCI  11
6HR MIN TEMP:  15; 6HR MAX TEMP:  21;

CHARLES CITY * CLOUDY    19  19 100 SE13      30.07S WCI   7
CLINTON *      LGT SNOW  12  10  92 E8        30.17F VSB 1   WCI   0
DECORAH *      CLOUDY    18  18 100 SE7       30.07F WCI   8
DUBUQUE        FOG       17  13  84 CALM      30.13S VSB 1/4
6HR MIN TEMP:  11; 6HR MAX TEMP:  19;

MONTICELLO *   FOG       18  16  93 SE5       30.15R VSB 1/4 WCI  11
OELWEIN *      SNOW      14  14 100 SE10      30.11S VSB 1/4 WCI   1
WATERLOO       CLOUDY    17  16  95 SE6       30.11S FOG     WCI   9
6HR MIN TEMP:  10; 6HR MAX TEMP:  18;

$$

IAZ064-065-067-068-078-181300-
   EAST CENTRAL IOWA

CITY           SKY/WX    TMP DP  RH WIND       PRES   REMARKS
DAVENPORT      FAIR      19  14  81 SE7       30.18F HAZE    WCI  10
6HR MIN TEMP:  14; 6HR MAX TEMP:  20;

IOWA CITY      FOG       18  14  84 CALM      30.18R VSB 1/4
6HR MIN TEMP:  14; 6HR MAX TEMP:  24;

MT. PLEASANT * CLEAR     25  25 100 SE8       30.18R WCI  16
MUSCATINE *    FOG       18  16  93 CALM      30.20R VSB<1/4
QUAD CITIES    CLOUDY    13  10  88 E3        30.18R FOG
6HR MIN TEMP:   7; 6HR MAX TEMP:  19;

$$

IAZ062-063-075>077-085>089-095>099-181300-
   SOUTHEAST IOWA

CITY           SKY/WX    TMP DP  RH WIND       PRES   REMARKS
BURLINGTON     CLEAR     26  22  84 S7        30.19R WCI  18
6HR MIN TEMP:  22; 6HR MAX TEMP:  27;

FAIRFIELD *    CLEAR     27  23  86 S8        30.15F WCI  18
FORT MADISON * PTCLDY    28  27  93 S9        30.19S WCI  20
KEOKUK *       CLOUDY    30  27  86 S3        30.18R
OSKALOOSA *    FAIR      23  21  95 SE12      30.12F WCI  11
OTTUMWA        CLOUDY    28  23  81 S12       30.13S WCI  18
6HR MIN TEMP:  21; 6HR MAX TEMP:  29;

WASHINGTON *   CLOUDY    21  21 100 S9        30.17S WCI  11
$$

ABBREVIATIONS USED IN REMARKS
   TC - TEMPERATURES IN CELSIUS
  WCI - WIND CHILL INDEX
   HX - HEAT INDEX
  VSB - VISIBILITY
$$





USA.gov is the U.S. government's official web portal to all federal, state and local government web resources and services.